This is the latest recevied weather packets stored in our database for station/object EA2KR-10. If no packets are shown the sender has not sent any weather packets the latest 10 day(s).
| Time | Temp. | Humidity | Pressure | Rain* | Wind** | Luminosity | Snow |
|---|---|---|---|---|---|---|---|
| 1788365007 | 45° C | 21% | 1033.7 hPa | - | - | - | - |
| 1788363207 | 45.56° C | 21% | 1033.8 hPa | - | - | - | - |
| 1788361407 | 45.56° C | 21% | 1033.9 hPa | - | - | - | - |
| 1788359607 | 45.56° C | 22% | 1034.1 hPa | - | - | - | - |
| 1788357807 | 45.56° C | 23% | 1034.2 hPa | - | - | - | - |
| 1788356007 | 44.44° C | 24% | 1034.3 hPa | - | - | - | - |
| 1788354206 | 43.33° C | 26% | 1034.4 hPa | - | - | - | - |
| 1788352406 | 42.22° C | 28% | 1034.5 hPa | - | - | - | - |
| 1788350606 | 40.56° C | 30% | 1034.7 hPa | - | - | - | - |
| 1788348806 | 38.89° C | 32% | 1034.9 hPa | - | - | - | - |
| 1788347006 | 36.67° C | 34% | 1035.2 hPa | - | - | - | - |
| 1788345206 | 34.44° C | 37% | 1035.3 hPa | - | - | - | - |
| 1788343406 | 32.22° C | 38% | 1035.2 hPa | - | - | - | - |
| 1788341606 | 30° C | 40% | 1035.2 hPa | - | - | - | - |
| 1788339806 | 28.33° C | 42% | 1035.1 hPa | - | - | - | - |
| 1788338005 | 26.67° C | 42% | 1034.8 hPa | - | - | - | - |
| 1788336205 | 25° C | 43% | 1034.6 hPa | - | - | - | - |
| 1788334405 | 23.33° C | 44% | 1034.6 hPa | - | - | - | - |
| 1788332605 | 22.78° C | 43% | 1034.5 hPa | - | - | - | - |
| 1788330807 | 22.22° C | 43% | 1034.2 hPa | - | - | - | - |
| 1788329007 | 22.22° C | 42% | 1034 hPa | - | - | - | - |
| 1788327207 | 22.78° C | 42% | 1033.7 hPa | - | - | - | - |
| 1788325407 | 22.78° C | 42% | 1033.6 hPa | - | - | - | - |
| 1788323607 | 22.78° C | 42% | 1033.5 hPa | - | - | - | - |
| 1788321807 | 22.78° C | 41% | 1033.6 hPa | - | - | - | - |
* Rain since midnight (hover to see other rain measurements)
** Current wind speed in m/s (hover to see current wind gust speed)